Weather in Bakshi

Ukraine / Odesa District     48°00′46″N   29°58′57″E
temp.,
°C
wind,
m/s
gust,
m/s
humid.,
%
clouds,
%
prec.,
mm/h
press.,
hPa
HPBL,
m
22 april, thu
thu2200:00+9sw347223 0.0 101753
03:00+7ssw33765 0.0 101742
06:00+7ssw33815 0.0 101837
09:00+12ssw45640 0.0 1019383
12:00+16s67487 0.2 10181861
15:00+17ssw6744100 0.2 10172092
18:00+16sse685280 0.0 1016977
21:00+11sse613725 0.0 1017286
23 april, fri
fri2300:00+10s5128081 0.0 1016259
03:00+9s5128217 0.4 1015263
06:00+7sw37935 0.4 1016138
09:00+10nnw5685100 0.4 1017521
12:00+11nnw5572100 0.0 1017954
15:00+7nnw7979100 0.1 1018692
18:00+6n3688100 1.6 1018609
21:00+5ssw22905 1.8 101932
24 april, sat
sat2400:00+4w38875 0.0 1019171
03:00+3wnw37815 0.0 1019117
06:00+2w311855 0.0 1019230
09:00+6wnw8117078 0.0 10211215
12:00+8wnw912417 0.1 10222221
15:00+10nw81134100 0.1 10212748
18:00+9nw610425 0.0 10222523
21:00+5wnw22593 0.0 102320
25 april, sun
sun2500:00+4w33665 0.0 102431
03:00+3wsw336760 0.0 102339
06:00+2sw336668 0.0 102238
09:00+9ssw58486 0.0 1021578
12:00+12sw794793 0.0 10201847
15:00+13wsw695666 1.2 10181698
18:00+12nw66555 0.6 10181293
21:00+8nw5970100 0.6 1019317
26 april, mon
mon2600:00+6nw3670100 0.1 1021427
03:00+3nw37760 0.1 1021160
06:00+1wnw37760 0.0 1021157
09:00+6wnw57540 0.0 1021872
12:00+10wnw6940100 0.0 10202561
15:00+10wnw81139100 0.0 10192469
18:00+10nw6104239 0.0 10192036
21:00+5nw3655100 0.0 1020101